M/T Filos — 9HQB8 — position and weather

sailwx.info

Track history (hours):
 
Tides and Currents Weather Stations Pressure Air Temp Water Temp Dewpoint Dewpoint Depression Visibility Wind Speed Wind Dir Waves Ship Positions

M/T Filos

Last reported at 2014-Oct-28 21:15 UTC. Time now 2014-Oct-31 06:24 UTC.
Position N 52°18' W 005°46'.

Length 180 m; draft 7.4 m.

Type: Tanker. MMSI: 224561000.

Date/timePositionNaut miles runAvg speedWind from/ knotsBaromVisibWave heightAir tempDewpointWater temp
2014-Oct-28 21:15N 52°18' W 005°46'6 9.0
2014-Oct-28 20:32N 52°24' W 005°44'116 2.4
2014-Oct-26 20:33N 54°19' W 005°19'9 9.5
2014-Oct-26 19:33N 54°28' W 005°15'10 9.8
2014-Oct-26 18:33N 54°38' W 005°17'9 9.4
2014-Oct-26 17:33N 54°46' W 005°25'9 8.9
2014-Oct-26 16:33N 54°54' W 005°34'25 8.4
2014-Oct-26 13:33N 55°14' W 005°59'10 9.6
2014-Oct-26 12:33N 55°22' W 006°10'1110.8
2014-Oct-26 11:33N 55°25' W 006°28'8 8.2
2014-Oct-26 10:33N 55°30' W 006°38'9 8.7
2014-Oct-26 09:33N 55°38' W 006°44'8 8.3
2014-Oct-26 08:33N 55°46' W 006°49'133 4.9
2014-Oct-25 05:11N 57°58' W 006°17'5 7.7
2014-Oct-25 04:33N 58°01' W 006°10'8 8.5
2014-Oct-25 03:33N 58°08' W 005°60'9 9.1
2014-Oct-25 02:33N 58°17' W 005°57'9 9.4
2014-Oct-25 01:33N 58°26' W 005°53'9 8.7
2014-Oct-25 00:33N 58°34' W 005°46'8 8.4
2014-Oct-24 23:33N 58°40' W 005°35'  
2014-Oct-22 07:33N 58°55' E 010°33'9 9.0
2014-Oct-22 06:33N 59°04' E 010°33'9 9.5
2014-Oct-22 05:33N 59°14' E 010°35'6 6.2
2014-Oct-22 04:33N 59°20' E 010°31'0 0.0
2014-Oct-21 12:31N 59°20' E 010°31'0 0.0
2014-Oct-21 11:28N 59°20' E 010°31'1 0.8
2014-Oct-21 10:33N 59°20' E 010°30'0 0.0
2014-Oct-21 09:30N 59°20' E 010°30'0 0.0
2014-Oct-21 08:33N 59°20' E 010°30'0 0.0
2014-Oct-21 07:33N 59°20' E 010°30'0 0.0
2014-Oct-21 06:33N 59°20' E 010°30'0 0.0
2014-Oct-21 05:33N 59°20' E 010°30'0 0.0
2014-Oct-21 04:33N 59°20' E 010°30'0 0.0
2014-Oct-21 03:33N 59°20' E 010°30'0 0.0
2014-Oct-21 02:30N 59°20' E 010°30'0 0.0
2014-Oct-21 01:33N 59°20' E 010°30'0 0.0
2014-Oct-21 00:33N 59°20' E 010°30'0 0.0
2014-Oct-20 23:33N 59°20' E 010°30'0 0.0
2014-Oct-20 22:33N 59°20' E 010°30'0 0.0
2014-Oct-20 21:33N 59°20' E 010°30'0 0.0
2014-Oct-20 20:33N 59°20' E 010°30'0 0.0
2014-Oct-20 19:33N 59°20' E 010°30'0 0.0
2014-Oct-20 18:33N 59°20' E 010°30'0 0.0
2014-Oct-20 17:33N 59°20' E 010°30'0 0.0
2014-Oct-20 16:33N 59°20' E 010°30'0 0.0
2014-Oct-20 15:33N 59°20' E 010°30'0 0.0
2014-Oct-20 14:33N 59°20' E 010°30'0 0.0
2014-Oct-20 13:33N 59°20' E 010°30'0 0.0
2014-Oct-20 12:33N 59°20' E 010°30'0 0.0
2014-Oct-20 11:33N 59°20' E 010°30'0 0.0
2014-Oct-20 10:33N 59°20' E 010°30'0 0.0
2014-Oct-20 09:33N 59°20' E 010°30'0 0.1
2014-Oct-20 08:33N 59°20' E 010°30'0 0.0
2014-Oct-20 07:33N 59°20' E 010°30'0 0.0
2014-Oct-20 06:33N 59°20' E 010°30'0 0.0
2014-Oct-20 05:33N 59°20' E 010°30'0 0.0
2014-Oct-20 04:33N 59°20' E 010°30'0 0.0
2014-Oct-20 03:33N 59°20' E 010°30'0 0.0
2014-Oct-20 02:33N 59°20' E 010°30'0 0.0
2014-Oct-20 01:33N 59°20' E 010°30'0 0.0
2014-Oct-20 00:33N 59°20' E 010°30'0 0.0
2014-Oct-19 23:33N 59°20' E 010°30'0 0.0
2014-Oct-19 22:33N 59°20' E 010°30'0 0.0
2014-Oct-19 21:33N 59°20' E 010°30'0 0.0
2014-Oct-19 20:33N 59°20' E 010°30'0 0.0
2014-Oct-19 19:33N 59°20' E 010°30'0 0.0
2014-Oct-19 18:33N 59°20' E 010°30'0 0.0
2014-Oct-19 17:33N 59°20' E 010°30'0 0.0
2014-Oct-19 16:33N 59°20' E 010°30'0 0.0
2014-Oct-19 15:33N 59°20' E 010°30'0 0.0
2014-Oct-19 14:33N 59°20' E 010°30'0 0.0
2014-Oct-19 13:33N 59°20' E 010°30'0 0.0
2014-Oct-19 12:33N 59°20' E 010°30'0 0.0
2014-Oct-19 11:33N 59°20' E 010°30'0 0.1
2014-Oct-19 10:30N 59°20' E 010°30'0 0.0
2014-Oct-19 09:33N 59°20' E 010°30'0 0.0
2014-Oct-19 08:33N 59°20' E 010°30'0 0.0
2014-Oct-19 07:33N 59°20' E 010°30'0 0.0
2014-Oct-19 06:33N 59°20' E 010°30'0 0.0
2014-Oct-19 05:33N 59°20' E 010°30'0 0.0
2014-Oct-19 04:33N 59°20' E 010°30'0 0.0
2014-Oct-19 03:33N 59°20' E 010°30'0 0.0
2014-Oct-19 02:33N 59°20' E 010°30'0 0.1
2014-Oct-19 01:33N 59°20' E 010°30'8 8.0
2014-Oct-19 00:33N 59°13' E 010°36'1010.1
2014-Oct-18 23:33N 59°03' E 010°35'5 5.2
2014-Oct-18 22:33N 58°58' E 010°34'8 8.0
2014-Oct-18 21:33N 58°50' E 010°35'  
Track history (hours):
 
Tides and Currents Weather Stations Pressure Air Temp Water Temp Dewpoint Dewpoint Depression Visibility Wind Speed Wind Dir Waves Ship Positions

M/T Filos

Last reported at 2014-Oct-28 21:15 UTC. Time now 2014-Oct-31 06:24 UTC.
Position N 52°18' W 005°46'.

Length 180 m; draft 7.4 m.

Type: Tanker. MMSI: 224561000.

Date/timePositionNaut miles runAvg speedWind from/ knotsBaromVisibWave heightAir tempDewpointWater temp
2014-Oct-28 21:15N 52°18' W 005°46'6 9.0
2014-Oct-28 20:32N 52°24' W 005°44'116 2.4
2014-Oct-26 20:33N 54°19' W 005°19'9 9.5
2014-Oct-26 19:33N 54°28' W 005°15'10 9.8
2014-Oct-26 18:33N 54°38' W 005°17'9 9.4
2014-Oct-26 17:33N 54°46' W 005°25'9 8.9
2014-Oct-26 16:33N 54°54' W 005°34'25 8.4
2014-Oct-26 13:33N 55°14' W 005°59'10 9.6
2014-Oct-26 12:33N 55°22' W 006°10'1110.8
2014-Oct-26 11:33N 55°25' W 006°28'8 8.2
2014-Oct-26 10:33N 55°30' W 006°38'9 8.7
2014-Oct-26 09:33N 55°38' W 006°44'8 8.3
2014-Oct-26 08:33N 55°46' W 006°49'133 4.9
2014-Oct-25 05:11N 57°58' W 006°17'5 7.7
2014-Oct-25 04:33N 58°01' W 006°10'8 8.5
2014-Oct-25 03:33N 58°08' W 005°60'9 9.1
2014-Oct-25 02:33N 58°17' W 005°57'9 9.4
2014-Oct-25 01:33N 58°26' W 005°53'9 8.7
2014-Oct-25 00:33N 58°34' W 005°46'8 8.4
2014-Oct-24 23:33N 58°40' W 005°35'  
2014-Oct-22 07:33N 58°55' E 010°33'9 9.0
2014-Oct-22 06:33N 59°04' E 010°33'9 9.5
2014-Oct-22 05:33N 59°14' E 010°35'6 6.2
2014-Oct-22 04:33N 59°20' E 010°31'0 0.0
2014-Oct-21 12:31N 59°20' E 010°31'0 0.0
2014-Oct-21 11:28N 59°20' E 010°31'1 0.8
2014-Oct-21 10:33N 59°20' E 010°30'0 0.0
2014-Oct-21 09:30N 59°20' E 010°30'0 0.0
2014-Oct-21 08:33N 59°20' E 010°30'0 0.0
2014-Oct-21 07:33N 59°20' E 010°30'0 0.0
2014-Oct-21 06:33N 59°20' E 010°30'0 0.0
2014-Oct-21 05:33N 59°20' E 010°30'0 0.0
2014-Oct-21 04:33N 59°20' E 010°30'0 0.0
2014-Oct-21 03:33N 59°20' E 010°30'0 0.0
2014-Oct-21 02:30N 59°20' E 010°30'0 0.0
2014-Oct-21 01:33N 59°20' E 010°30'0 0.0
2014-Oct-21 00:33N 59°20' E 010°30'0 0.0
2014-Oct-20 23:33N 59°20' E 010°30'0 0.0
2014-Oct-20 22:33N 59°20' E 010°30'0 0.0
2014-Oct-20 21:33N 59°20' E 010°30'0 0.0
2014-Oct-20 20:33N 59°20' E 010°30'0 0.0
2014-Oct-20 19:33N 59°20' E 010°30'0 0.0
2014-Oct-20 18:33N 59°20' E 010°30'0 0.0
2014-Oct-20 17:33N 59°20' E 010°30'0 0.0
2014-Oct-20 16:33N 59°20' E 010°30'0 0.0
2014-Oct-20 15:33N 59°20' E 010°30'0 0.0
2014-Oct-20 14:33N 59°20' E 010°30'0 0.0
2014-Oct-20 13:33N 59°20' E 010°30'0 0.0
2014-Oct-20 12:33N 59°20' E 010°30'0 0.0
2014-Oct-20 11:33N 59°20' E 010°30'0 0.0
2014-Oct-20 10:33N 59°20' E 010°30'0 0.0
2014-Oct-20 09:33N 59°20' E 010°30'0 0.1
2014-Oct-20 08:33N 59°20' E 010°30'0 0.0
2014-Oct-20 07:33N 59°20' E 010°30'0 0.0
2014-Oct-20 06:33N 59°20' E 010°30'0 0.0
2014-Oct-20 05:33N 59°20' E 010°30'0 0.0
2014-Oct-20 04:33N 59°20' E 010°30'0 0.0
2014-Oct-20 03:33N 59°20' E 010°30'0 0.0
2014-Oct-20 02:33N 59°20' E 010°30'0 0.0
2014-Oct-20 01:33N 59°20' E 010°30'0 0.0
2014-Oct-20 00:33N 59°20' E 010°30'0 0.0
2014-Oct-19 23:33N 59°20' E 010°30'0 0.0
2014-Oct-19 22:33N 59°20' E 010°30'0 0.0
2014-Oct-19 21:33N 59°20' E 010°30'0 0.0
2014-Oct-19 20:33N 59°20' E 010°30'0 0.0
2014-Oct-19 19:33N 59°20' E 010°30'0 0.0
2014-Oct-19 18:33N 59°20' E 010°30'0 0.0
2014-Oct-19 17:33N 59°20' E 010°30'0 0.0
2014-Oct-19 16:33N 59°20' E 010°30'0 0.0
2014-Oct-19 15:33N 59°20' E 010°30'0 0.0
2014-Oct-19 14:33N 59°20' E 010°30'0 0.0
2014-Oct-19 13:33N 59°20' E 010°30'0 0.0
2014-Oct-19 12:33N 59°20' E 010°30'0 0.0
2014-Oct-19 11:33N 59°20' E 010°30'0 0.1
2014-Oct-19 10:30N 59°20' E 010°30'0 0.0
2014-Oct-19 09:33N 59°20' E 010°30'0 0.0
2014-Oct-19 08:33N 59°20' E 010°30'0 0.0
2014-Oct-19 07:33N 59°20' E 010°30'0 0.0
2014-Oct-19 06:33N 59°20' E 010°30'0 0.0
2014-Oct-19 05:33N 59°20' E 010°30'0 0.0
2014-Oct-19 04:33N 59°20' E 010°30'0 0.0
2014-Oct-19 03:33N 59°20' E 010°30'0 0.0
2014-Oct-19 02:33N 59°20' E 010°30'0 0.1
2014-Oct-19 01:33N 59°20' E 010°30'8 8.0
2014-Oct-19 00:33N 59°13' E 010°36'1010.1
2014-Oct-18 23:33N 59°03' E 010°35'5 5.2
2014-Oct-18 22:33N 58°58' E 010°34'8 8.0
2014-Oct-18 21:33N 58°50' E 010°35'  

Dump ship's entire track history